�v������,���r���O(���x),�����t���O,���r���O(���x),�����t���O,��1(���x),�����t���O,�������x,�����t���O
10/1/2002 0:00,24.7,1,67.5,1,23.3,1,21.6,1
10/1/2002 0:15,24.6,1,67.8,1,23.3,1,21.7,1
10/1/2002 0:30,24.6,1,68.1,1,23.3,1,21.7,1
10/1/2002 0:45,24.6,1,68.3,1,23.2,1,21.8,1
10/1/2002 1:00,24.5,1,68.6,1,23.2,1,21.8,1
10/1/2002 1:15,24.5,1,68.8,1,23.2,1,21.9,1
10/1/2002 1:30,24.4,1,68.8,1,23.2,1,21.9,1
10/1/2002 1:45,24.3,1,69,1,23.1,1,22,1
10/1/2002 2:00,24.3,1,69.1,1,23.1,1,22.1,1
10/1/2002 2:15,24.3,1,69.1,1,23.1,1,22.1,1
10/1/2002 2:30,24.2,1,69.2,1,23.1,1,22.2,1
10/1/2002 2:45,24.2,1,69.3,1,23.1,1,22.2,1
10/1/2002 3:00,24.1,1,69.2,1,23.1,1,22.3,1
10/1/2002 3:15,24.1,1,69.3,1,23.1,1,22.3,1
10/1/2002 3:30,24.1,1,69.4,1,23,1,22.4,1
10/1/2002 3:45,24.1,1,69.3,1,23,1,22.4,1
10/1/2002 4:00,24,1,69.4,1,23,1,22.4,1
10/1/2002 4:15,24,1,69.6,1,23,1,22.5,1
10/1/2002 4:30,24,1,69.5,1,23,1,22.5,1
10/1/2002 4:45,23.9,1,69.6,1,23,1,22.6,1
10/1/2002 5:00,23.9,1,69.6,1,23,1,22.6,1
10/1/2002 5:15,23.8,1,69.5,1,23,1,22.6,1
10/1/2002 5:30,23.7,1,69.5,1,23,1,22.7,1
10/1/2002 5:45,23.7,1,69.5,1,23,1,22.7,1
10/1/2002 6:00,23.7,1,69.4,1,23.1,1,22.7,1
10/1/2002 6:15,23.6,1,69.5,1,23.1,1,22.8,1
10/1/2002 6:30,23.6,1,69.5,1,23.2,1,22.8,1
10/1/2002 6:45,23.6,1,69.4,1,23.2,1,22.8,1
10/1/2002 7:00,23.5,1,69.6,1,23.2,1,22.8,1
10/1/2002 7:15,23.5,1,69.6,1,23.3,1,22.9,1
10/1/2002 7:30,23.5,1,69.5,1,23.3,1,21.4,1
10/1/2002 7:45,23.5,1,70,1,23.3,1,21.1,1
10/1/2002 8:00,23.6,1,69.9,1,23.3,1,21.2,1
10/1/2002 8:15,23.6,1,69.8,1,23.3,1,21.3,1
10/1/2002 8:30,23.6,1,69.7,1,23.3,1,21.3,1
10/1/2002 8:45,23.5,1,69.6,1,23.3,1,21.4,1
10/1/2002 9:00,23.5,1,69.6,1,23.3,1,21.4,1
10/1/2002 9:15,23.5,1,69.6,1,23.3,1,21.5,1
10/1/2002 9:30,23.4,1,69.7,1,23.3,1,21.5,1
10/1/2002 9:45,23.4,1,69.7,1,23.3,1,21.6,1
10/1/2002 10:00,23.4,1,69.7,1,23.3,1,21.6,1
10/1/2002 10:15,23.4,1,69.7,1,23.3,1,21.7,1
10/1/2002 10:30,23.4,1,69.6,1,23.3,1,21.7,1
10/1/2002 10:45,23.4,1,69.7,1,23.3,1,21.8,1
10/1/2002 11:00,23.4,1,69.7,1,23.3,1,21.8,1
10/1/2002 11:15,23.5,1,69.8,1,23.3,1,21.1,1
10/1/2002 11:30,23.5,1,70,1,23.3,1,21.2,1
10/1/2002 11:45,23.5,1,70.4,1,23.3,1,21.2,1
10/1/2002 12:00,23.6,1,70.3,1,23.3,1,21.3,1
10/1/2002 12:15,23.7,1,70.3,1,23.3,1,21.4,1
10/1/2002 12:30,23.7,1,70.3,1,23.2,1,21.4,1
10/1/2002 12:45,23.8,1,70.2,1,23.2,1,21.5,1
10/1/2002 13:00,23.8,1,70.2,1,23.1,1,21.5,1
10/1/2002 13:15,23.9,1,70,1,23.1,1,21.6,1
10/1/2002 13:30,23.8,1,70.1,1,23.1,1,21.6,1
10/1/2002 13:45,23.8,1,70.2,1,23,1,21.7,1
10/1/2002 14:00,23.8,1,70.3,1,23,1,21.7,1
10/1/2002 14:15,23.8,1,70.4,1,23,1,21.8,1
10/1/2002 14:30,23.8,1,70.5,1,23,1,21.8,1
10/1/2002 14:45,23.9,1,70.8,1,22.9,1,21.9,1
10/1/2002 15:00,23.9,1,70.6,1,22.9,1,21.9,1
10/1/2002 15:15,23.8,1,70.7,1,22.9,1,21.9,1
10/1/2002 15:30,23.8,1,70.7,1,22.9,1,22,1
10/1/2002 15:45,23.8,1,70.6,1,22.9,1,22,1
10/1/2002 16:00,23.7,1,70.7,1,22.9,1,22.1,1
10/1/2002 16:15,23.7,1,70.6,1,22.9,1,22.1,1
10/1/2002 16:30,23.7,1,70.5,1,22.8,1,22.2,1
10/1/2002 16:45,23.7,1,70.6,1,22.8,1,22.2,1
10/1/2002 17:00,23.7,1,70.6,1,22.8,1,22.2,1
10/1/2002 17:15,23.6,1,70.4,1,22.8,1,22.3,1
10/1/2002 17:30,23.6,1,70.6,1,22.8,1,22.3,1
10/1/2002 17:45,23.6,1,70.6,1,22.7,1,22.3,1
10/1/2002 18:00,23.6,1,70.6,1,22.7,1,22.4,1
10/1/2002 18:15,23.6,1,71.1,1,22.7,1,21.2,1
10/1/2002 18:30,23.7,1,72,1,22.7,1,21.2,1
10/1/2002 18:45,23.8,1,72.3,1,22.7,1,21.3,1
10/1/2002 19:00,24.1,1,74.5,1,22.7,1,21.3,1
10/1/2002 19:15,24.2,1,74.4,1,22.7,1,21.4,1
10/1/2002 19:30,24.5,1,73.9,1,22.7,1,21.4,1
10/1/2002 19:45,24.5,1,73.1,1,22.8,1,21.5,1
10/1/2002 20:00,24.5,1,73.3,1,22.8,1,21.6,1
10/1/2002 20:15,24.5,1,73.9,1,22.9,1,21.6,1
10/1/2002 20:30,24.5,1,72.9,1,22.9,1,20.9,1
10/1/2002 20:45,24.5,1,72.9,1,22.9,1,20.8,1
10/1/2002 21:00,24.5,1,73.3,1,22.9,1,20.8,1
10/1/2002 21:15,24.6,1,74.1,1,23,1,20.9,1
10/1/2002 21:30,24.7,1,73.8,1,23.1,1,21,1
10/1/2002 21:45,24.7,1,73.4,1,23.2,1,21.1,1
10/1/2002 22:00,24.7,1,73.1,1,23.4,1,21.1,1
10/1/2002 22:15,24.7,1,72.8,1,23.5,1,21.2,1
10/1/2002 22:30,24.7,1,72.7,1,23.6,1,21.3,1
10/1/2002 22:45,24.6,1,72.6,1,23.6,1,21.4,1
10/1/2002 23:00,24.6,1,72.3,1,23.7,1,21.4,1
10/1/2002 23:15,24.6,1,72.2,1,23.7,1,21.2,1
10/1/2002 23:30,24.5,1,72,1,23.7,1,21.2,1
10/1/2002 23:45,24.5,1,72.1,1,23.8,1,21.3,1
10/2/2002 0:00,24.5,1,71.9,1,23.8,1,21,1
10/2/2002 0:15,24.6,1,71.9,1,23.8,1,21.1,1
10/2/2002 0:30,24.5,1,71.7,1,23.8,1,21.2,1
10/2/2002 0:45,24.5,1,71.7,1,23.8,1,21.2,1
10/2/2002 1:00,24.5,1,71.6,1,23.8,1,21.3,1
10/2/2002 1:15,24.5,1,71.4,1,23.8,1,21.4,1
10/2/2002 1:30,24.5,1,71.4,1,23.8,1,21.4,1
10/2/2002 1:45,24.5,1,71.3,1,23.8,1,21.5,1
10/2/2002 2:00,24.4,1,71.2,1,23.8,1,21.6,1
10/2/2002 2:15,24.4,1,71.2,1,23.8,1,21.6,1
10/2/2002 2:30,24.4,1,71,1,23.7,1,21.7,1
10/2/2002 2:45,24.4,1,70.9,1,23.7,1,21.8,1
10/2/2002 3:00,24.4,1,70.7,1,23.7,1,21.8,1
10/2/2002 3:15,24.4,1,70.7,1,23.7,1,21.9,1
10/2/2002 3:30,24.4,1,70.8,1,23.7,1,21.9,1
10/2/2002 3:45,24.4,1,71,1,23.7,1,22,1
10/2/2002 4:00,24.4,1,70.9,1,23.7,1,22.1,1
10/2/2002 4:15,24.5,1,70.9,1,23.8,1,22.1,1
10/2/2002 4:30,24.5,1,70.7,1,23.8,1,22.2,1
10/2/2002 4:45,24.5,1,70.6,1,23.9,1,22.2,1
10/2/2002 5:00,24.5,1,70.4,1,23.9,1,22.3,1
10/2/2002 5:15,24.4,1,70.1,1,23.9,1,22.3,1
10/2/2002 5:30,24.4,1,70.1,1,23.9,1,22.4,1
10/2/2002 5:45,24.3,1,70.1,1,24,1,22.4,1
10/2/2002 6:00,24.3,1,70.1,1,24,1,22.5,1
10/2/2002 6:15,24.3,1,70.1,1,24,1,22.5,1
10/2/2002 6:30,24.2,1,69.8,1,24,1,22.5,1
10/2/2002 6:45,24.2,1,70,1,24,1,22.6,1
10/2/2002 7:00,24.2,1,70.1,1,24,1,22.6,1
10/2/2002 7:15,24.1,1,70,1,24,1,22.7,1
10/2/2002 7:30,24.1,1,70.3,1,24,1,22.7,1
10/2/2002 7:45,24.2,1,70.3,1,24.1,1,22.7,1
10/2/2002 8:00,24.2,1,70.1,1,24.2,1,22.8,1
10/2/2002 8:15,24.2,1,70.4,1,24.3,1,20.6,1
10/2/2002 8:30,24.3,1,70.5,1,24.4,1,20.7,1
10/2/2002 8:45,24.4,1,70.7,1,24.5,1,20.8,1
10/2/2002 9:00,24.4,1,70.8,1,24.6,1,20.9,1
10/2/2002 9:15,24.6,1,71.1,1,24.6,1,20.7,1
10/2/2002 9:30,24.6,1,70.9,1,24.7,1,20.8,1
10/2/2002 9:45,24.7,1,70.5,1,24.8,1,20.9,1
10/2/2002 10:00,24.7,1,69.2,1,24.9,1,21,1
10/2/2002 10:15,24.8,1,68.7,1,24.9,1,21.1,1
10/2/2002 10:30,24.9,1,68.2,1,25,1,21.1,1
10/2/2002 10:45,25,1,67.2,1,25.1,1,21.2,1
10/2/2002 11:00,25.1,1,66.4,1,25.1,1,20.9,1
10/2/2002 11:15,25.2,1,64.8,1,25.2,1,21,1
10/2/2002 11:30,25.3,1,65.4,1,25.2,1,21.1,1
10/2/2002 11:45,25.4,1,64.5,1,25.3,1,21.2,1
10/2/2002 12:00,25.6,1,64.3,1,25.4,1,21.3,1
10/2/2002 12:15,26.6,1,67.8,1,25.5,1,21.3,1
10/2/2002 12:30,26.6,1,65.2,1,25.7,1,21.4,1
10/2/2002 12:45,26.6,1,65.1,1,25.8,1,21,1
10/2/2002 13:00,26.6,1,64.6,1,25.9,1,21.1,1
10/2/2002 13:15,26.7,1,63.9,1,26,1,21.2,1
10/2/2002 13:30,26.7,1,63.4,1,26.1,1,21.3,1
10/2/2002 13:45,26.8,1,63.2,1,26.2,1,21.4,1
10/2/2002 14:00,26.8,1,63.1,1,26.3,1,21.5,1
10/2/2002 14:15,26.9,1,63,1,26.3,1,21.6,1
10/2/2002 14:30,27,1,62.9,1,26.4,1,21.6,1
10/2/2002 14:45,27,1,63.1,1,26.5,1,21.7,1
10/2/2002 15:00,27.1,1,63.5,1,26.6,1,21.8,1
10/2/2002 15:15,27.2,1,63.7,1,26.7,1,21.9,1
10/2/2002 15:30,27.2,1,63.7,1,26.8,1,22,1
10/2/2002 15:45,27.3,1,63.7,1,26.8,1,22.1,1
10/2/2002 16:00,27.3,1,63.9,1,26.9,1,22.2,1
10/2/2002 16:15,27.4,1,63.6,1,26.9,1,21.6,1
10/2/2002 16:30,27.3,1,63.3,1,26.9,1,21.4,1
10/2/2002 16:45,27.4,1,63.3,1,26.9,1,21.5,1
10/2/2002 17:00,27.4,1,63,1,26.9,1,21.6,1
10/2/2002 17:15,27.4,1,62.8,1,26.8,1,21.7,1
10/2/2002 17:30,27.4,1,62.5,1,26.8,1,21.8,1
10/2/2002 17:45,27.4,1,62.4,1,26.7,1,21.9,1
10/2/2002 18:00,27.4,1,62,1,26.7,1,22,1
10/2/2002 18:15,27.3,1,62.2,1,26.6,1,22.1,1
10/2/2002 18:30,27.3,1,62.3,1,26.6,1,22.2,1
10/2/2002 18:45,27.3,1,62,1,26.6,1,22.3,1
10/2/2002 19:00,27.3,1,61.7,1,26.6,1,22.3,1
10/2/2002 19:15,27.3,1,61.3,1,26.6,1,22.4,1
10/2/2002 19:30,27.2,1,60.8,1,26.6,1,22.5,1
10/2/2002 19:45,27.2,1,60.7,1,26.5,1,22.6,1
10/2/2002 20:00,27.1,1,60.5,1,26.5,1,22.7,1
10/2/2002 20:15,27.1,1,60.4,1,26.5,1,22.7,1
10/2/2002 20:30,27,1,59.8,1,26.4,1,21.7,1
10/2/2002 20:45,26.8,1,59.7,1,26.4,1,21.8,1
10/2/2002 21:00,26.6,1,60.8,1,26.3,1,21.8,1
10/2/2002 21:15,26.5,1,61.6,1,26.2,1,21.9,1
10/2/2002 21:30,26.7,1,62.7,1,26.2,1,22,1
10/2/2002 21:45,26.8,1,62.5,1,26.1,1,22.1,1
10/2/2002 22:00,26.8,1,62.5,1,26,1,22.2,1
10/2/2002 22:15,26.8,1,62.5,1,26,1,22.3,1
10/2/2002 22:30,26.8,1,62.6,1,26,1,22.3,1
10/2/2002 22:45,26.8,1,62.7,1,26,1,22.4,1
10/2/2002 23:00,26.8,1,62.8,1,26,1,21.6,1
10/2/2002 23:15,26.8,1,62.8,1,26,1,21.7,1
10/2/2002 23:30,26.8,1,62.7,1,26.1,1,21.7,1
10/2/2002 23:45,26.8,1,62.9,1,26.1,1,21.3,1
10/3/2002 0:00,26.8,1,62.9,1,26.1,1,21.4,1
10/3/2002 0:15,26.8,1,62.8,1,26.1,1,21.5,1
10/3/2002 0:30,26.7,1,62.8,1,26.1,1,21.6,1
10/3/2002 0:45,26.7,1,62.8,1,26.1,1,21.7,1
10/3/2002 1:00,26.7,1,62.7,1,26,1,21.8,1
10/3/2002 1:15,26.6,1,62.7,1,26,1,21.8,1
10/3/2002 1:30,26.6,1,62.7,1,26,1,21.9,1
10/3/2002 1:45,26.6,1,62.7,1,26,1,22,1
10/3/2002 2:00,26.5,1,62.5,1,25.9,1,22.1,1
10/3/2002 2:15,26.5,1,62.5,1,25.9,1,22.2,1
10/3/2002 2:30,26.5,1,62.4,1,25.9,1,22.2,1
10/3/2002 2:45,26.4,1,62.5,1,25.9,1,22.3,1
10/3/2002 3:00,26.3,1,62.2,1,25.9,1,22.4,1
10/3/2002 3:15,26.2,1,62.4,1,25.9,1,22.5,1
10/3/2002 3:30,26.1,1,62.5,1,25.9,1,22.5,1
10/3/2002 3:45,26.1,1,62.8,1,25.9,1,22.6,1
10/3/2002 4:00,26.2,1,62.9,1,25.9,1,22.7,1
10/3/2002 4:15,26.2,1,62.9,1,25.9,1,22.7,1
10/3/2002 4:30,26.2,1,62.9,1,25.8,1,22.8,1
10/3/2002 4:45,26.1,1,63,1,25.8,1,22.8,1
10/3/2002 5:00,26.1,1,62.9,1,25.8,1,22.9,1
10/3/2002 5:15,26.1,1,62.9,1,25.7,1,22.9,1
10/3/2002 5:30,26,1,62.6,1,25.7,1,23,1
10/3/2002 5:45,25.9,1,62.6,1,25.7,1,23.1,1
10/3/2002 6:00,25.9,1,62.8,1,25.7,1,23.1,1
10/3/2002 6:15,25.8,1,62.8,1,25.6,1,23.2,1
10/3/2002 6:30,25.8,1,63.1,1,25.6,1,21.9,1
10/3/2002 6:45,25.7,1,63.7,1,25.5,1,21.5,1
10/3/2002 7:00,25.8,1,63.8,1,25.5,1,21.5,1
10/3/2002 7:15,25.8,1,63.6,1,25.5,1,21.6,1
10/3/2002 7:30,25.9,1,63.5,1,25.4,1,21.6,1
10/3/2002 7:45,25.9,1,63.2,1,25.4,1,21.7,1
10/3/2002 8:00,25.8,1,63.2,1,25.4,1,21.8,1
10/3/2002 8:15,25.9,1,63.2,1,25.4,1,21.9,1
10/3/2002 8:30,25.8,1,63,1,25.4,1,21.9,1
10/3/2002 8:45,25.8,1,63.1,1,25.4,1,22,1
10/3/2002 9:00,25.8,1,63.1,1,25.5,1,22.1,1
10/3/2002 9:15,25.8,1,63.4,1,25.6,1,21.4,1
10/3/2002 9:30,25.8,1,63.2,1,25.6,1,21.5,1
10/3/2002 9:45,25.8,1,62.8,1,25.6,1,21.5,1
10/3/2002 10:00,25.8,1,62.5,1,25.7,1,21.6,1
10/3/2002 10:15,25.8,1,62.1,1,25.7,1,21.7,1
10/3/2002 10:30,25.8,1,62,1,25.8,1,21.8,1
10/3/2002 10:45,25.8,1,62.2,1,25.8,1,21.4,1
10/3/2002 11:00,25.8,1,62.2,1,25.8,1,21.4,1
10/3/2002 11:15,25.9,1,62.3,1,25.9,1,21.5,1
10/3/2002 11:30,26,1,62.2,1,25.9,1,21.6,1
10/3/2002 11:45,26,1,62.2,1,26,1,21.5,1
10/3/2002 12:00,26.2,1,62.6,1,26,1,21.6,1
10/3/2002 12:15,26.3,1,62.1,1,26.1,1,21.6,1
10/3/2002 12:30,26.4,1,61.5,1,26.1,1,21.4,1
10/3/2002 12:45,26.6,1,60.2,1,26.2,1,21.5,1
10/3/2002 13:00,26.5,1,59.9,1,26.3,1,21.6,1
10/3/2002 13:15,26.6,1,60,1,26.3,1,21.7,1
10/3/2002 13:30,26.6,1,59.8,1,26.4,1,21.8,1
10/3/2002 13:45,26.6,1,59.5,1,26.4,1,21.9,1
10/3/2002 14:00,26.6,1,59.5,1,26.5,1,22,1
10/3/2002 14:15,26.5,1,59.2,1,26.5,1,22,1
10/3/2002 14:30,26.5,1,59.1,1,26.6,1,21.6,1
10/3/2002 14:45,26.6,1,59.5,1,26.6,1,21.6,1
10/3/2002 15:00,26.7,1,59.9,1,26.6,1,21.7,1
10/3/2002 15:15,26.7,1,59.9,1,26.6,1,21.8,1
10/3/2002 15:30,26.7,1,60.2,1,26.7,1,21.9,1
10/3/2002 15:45,26.8,1,60.3,1,26.7,1,22,1
10/3/2002 16:00,26.8,1,60.2,1,26.7,1,22,1
10/3/2002 16:15,26.8,1,60.4,1,26.7,1,22.1,1
10/3/2002 16:30,26.8,1,60.8,1,26.7,1,22.2,1
10/3/2002 16:45,26.9,1,60.6,1,26.7,1,22.3,1
10/3/2002 17:00,27,1,60.3,1,26.8,1,22.4,1
10/3/2002 17:15,27,1,60.3,1,26.7,1,22.5,1
10/3/2002 17:30,27.1,1,60.3,1,26.7,1,22.5,1
10/3/2002 17:45,27.1,1,60.4,1,26.7,1,22.6,1
10/3/2002 18:00,27.2,1,60.5,1,26.7,1,22.7,1
10/3/2002 18:15,27.3,1,60.6,1,26.7,1,22.8,1
10/3/2002 18:30,27.6,1,61.7,1,26.7,1,22.8,1
10/3/2002 18:45,27.7,1,62.2,1,26.7,1,22.9,1
10/3/2002 19:00,27.6,1,61.4,1,26.7,1,23,1
10/3/2002 19:15,27.7,1,60.7,1,26.7,1,23,1
10/3/2002 19:30,27.7,1,60.4,1,26.7,1,23.1,1
10/3/2002 19:45,27.8,1,61.1,1,26.6,1,23.2,1
10/3/2002 20:00,27.7,1,60.6,1,26.6,1,23.2,1
10/3/2002 20:15,27.7,1,61,1,26.6,1,23.3,1
10/3/2002 20:30,27.7,1,61.4,1,26.6,1,23.3,1
10/3/2002 20:45,27.7,1,61.5,1,26.6,1,21.2,1
10/3/2002 21:00,27.6,1,61.7,1,26.6,1,21.3,1
10/3/2002 21:15,27.6,1,62,1,26.5,1,21.4,1
10/3/2002 21:30,27.6,1,62,1,26.5,1,21.5,1
10/3/2002 21:45,27.6,1,62,1,26.5,1,21.6,1
10/3/2002 22:00,27.5,1,62.1,1,26.5,1,21.7,1
10/3/2002 22:15,27.5,1,62.2,1,26.5,1,21.8,1
10/3/2002 22:30,27.5,1,62.2,1,26.4,1,21.9,1
10/3/2002 22:45,27.4,1,62.1,1,26.4,1,22,1
10/3/2002 23:00,27.3,1,62.3,1,26.4,1,22.1,1
10/3/2002 23:15,27.3,1,62.3,1,26.4,1,22.2,1
10/3/2002 23:30,27.3,1,62.3,1,26.4,1,22.3,1
10/3/2002 23:45,27.2,1,62.3,1,26.4,1,22.4,1
10/4/2002 0:00,27.2,1,62.3,1,26.4,1,22.5,1
10/4/2002 0:15,27.2,1,62.5,1,26.3,1,21.5,1
10/4/2002 0:30,27.1,1,62.7,1,26.3,1,21.6,1
10/4/2002 0:45,27,1,63.3,1,26.3,1,21,1
10/4/2002 1:00,27,1,63.4,1,26.2,1,21.1,1
10/4/2002 1:15,27,1,63.5,1,26.2,1,21.2,1
10/4/2002 1:30,27,1,63.7,1,26.3,1,21.3,1
10/4/2002 1:45,26.9,1,64,1,26.3,1,21.4,1
10/4/2002 2:00,26.8,1,64.1,1,26.3,1,21.5,1
10/4/2002 2:15,26.8,1,64.4,1,26.3,1,21.6,1
10/4/2002 2:30,26.7,1,64.5,1,26.3,1,21.7,1
10/4/2002 2:45,26.7,1,64.5,1,26.3,1,21.8,1
10/4/2002 3:00,26.5,1,64.7,1,26.3,1,21.9,1
10/4/2002 3:15,26.4,1,65,1,26.3,1,22,1
10/4/2002 3:30,26.4,1,65.2,1,26.3,1,22.1,1
10/4/2002 3:45,26.4,1,65.4,1,26.2,1,22.2,1
10/4/2002 4:00,26.4,1,65.5,1,26.2,1,22.2,1
10/4/2002 4:15,26.3,1,65.5,1,26.2,1,22.3,1
10/4/2002 4:30,26.3,1,65.5,1,26.1,1,22.4,1
10/4/2002 4:45,26.2,1,65.6,1,26.1,1,22.5,1
10/4/2002 5:00,26.2,1,65.5,1,26,1,22.5,1
10/4/2002 5:15,26.1,1,65.4,1,25.9,1,22.6,1
10/4/2002 5:30,26,1,65.4,1,25.9,1,22.7,1
10/4/2002 5:45,25.9,1,65.6,1,25.8,1,22.7,1
10/4/2002 6:00,25.8,1,65.6,1,25.7,1,22.8,1
10/4/2002 6:15,25.7,1,65.7,1,25.6,1,22.9,1
10/4/2002 6:30,25.6,1,66.1,1,25.5,1,21.9,1
10/4/2002 6:45,25.6,1,66.6,1,25.4,1,21.4,1
10/4/2002 7:00,25.6,1,67.5,1,25.4,1,21.2,1
10/4/2002 7:15,25.6,1,67.2,1,25.3,1,21.3,1
10/4/2002 7:30,25.6,1,66.7,1,25.2,1,21.4,1
10/4/2002 7:45,25.6,1,66.4,1,25.2,1,21.5,1
10/4/2002 8:00,25.6,1,66.2,1,25.3,1,21.6,1
10/4/2002 8:15,25.6,1,65.8,1,25.3,1,21.6,1
10/4/2002 8:30,25.5,1,65.5,1,25.3,1,21.7,1
10/4/2002 8:45,25.5,1,65.4,1,25.4,1,21.8,1
10/4/2002 9:00,25.5,1,65.3,1,25.4,1,21.9,1
10/4/2002 9:15,25.4,1,65.1,1,25.4,1,22,1
10/4/2002 9:30,25.4,1,65.1,1,25.5,1,22,1
10/4/2002 9:45,25.5,1,65.1,1,25.5,1,22.1,1
10/4/2002 10:00,25.4,1,64.9,1,25.6,1,22.2,1
10/4/2002 10:15,25.5,1,65.1,1,25.6,1,22.3,1
10/4/2002 10:30,25.5,1,65,1,25.6,1,22.3,1
10/4/2002 10:45,25.5,1,64.9,1,25.7,1,22.4,1
10/4/2002 11:00,25.6,1,65.1,1,25.7,1,22.5,1
10/4/2002 11:15,25.6,1,65.1,1,25.8,1,22.5,1
10/4/2002 11:30,25.6,1,65,1,25.8,1,22.6,1
10/4/2002 11:45,25.7,1,65.1,1,25.9,1,22.7,1
10/4/2002 12:00,25.8,1,65,1,25.9,1,22.7,1
10/4/2002 12:15,25.8,1,64.9,1,26,1,22.8,1
10/4/2002 12:30,25.9,1,64.9,1,26.1,1,22.9,1
10/4/2002 12:45,26,1,64.8,1,26.1,1,22.9,1
10/4/2002 13:00,26,1,64.6,1,26.2,1,23,1
10/4/2002 13:15,26,1,64.7,1,26.3,1,23.1,1
10/4/2002 13:30,26.1,1,64.7,1,26.3,1,23.1,1
10/4/2002 13:45,26.1,1,64.6,1,26.4,1,23.2,1
10/4/2002 14:00,26.2,1,64.4,1,26.5,1,23.2,1
10/4/2002 14:15,26.3,1,64.2,1,26.5,1,23.3,1
10/4/2002 14:30,26.3,1,64,1,26.6,1,23.3,1
10/4/2002 14:45,26.3,1,63.6,1,26.6,1,23.4,1
10/4/2002 15:00,26.4,1,63.2,1,26.7,1,23.5,1
10/4/2002 15:15,26.4,1,63,1,26.7,1,23.5,1
10/4/2002 15:30,26.5,1,62.7,1,26.7,1,23.6,1
10/4/2002 15:45,26.5,1,62.5,1,26.8,1,23.6,1
10/4/2002 16:00,26.5,1,62.2,1,26.8,1,23.7,1
10/4/2002 16:15,26.5,1,61.9,1,26.8,1,23.7,1
10/4/2002 16:30,26.6,1,61.7,1,26.8,1,23.8,1
10/4/2002 16:45,26.6,1,61.5,1,26.8,1,23.8,1
10/4/2002 17:00,26.7,1,61.2,1,26.8,1,23.9,1
10/4/2002 17:15,26.7,1,61.1,1,26.8,1,23.9,1
10/4/2002 17:30,26.7,1,61,1,26.8,1,24,1
10/4/2002 17:45,26.8,1,60.7,1,26.8,1,24,1
10/4/2002 18:00,26.8,1,60.4,1,26.7,1,24.1,1
10/4/2002 18:15,26.9,1,60.4,1,26.7,1,22.3,1
10/4/2002 18:30,26.8,1,60,1,26.7,1,22.4,1
10/4/2002 18:45,26.8,1,59.8,1,26.7,1,22.4,1
10/4/2002 19:00,26.9,1,59.3,1,26.7,1,21.6,1
10/4/2002 19:15,27.3,1,60.5,1,26.7,1,21.7,1
10/4/2002 19:30,27.3,1,59.2,1,26.7,1,21.8,1
10/4/2002 19:45,27.4,1,58.4,1,26.7,1,21.9,1
10/4/2002 20:00,27.3,1,58.2,1,26.7,1,22,1
10/4/2002 20:15,27.2,1,58.3,1,26.6,1,22.1,1
10/4/2002 20:30,27.2,1,58.5,1,26.6,1,22.1,1
10/4/2002 20:45,27.2,1,58.8,1,26.6,1,22.2,1
10/4/2002 21:00,27.2,1,59.2,1,26.6,1,22.3,1
10/4/2002 21:15,27.2,1,59.7,1,26.6,1,22.4,1
10/4/2002 21:30,27.2,1,60,1,26.6,1,22.5,1
10/4/2002 21:45,27.2,1,60.1,1,26.5,1,22.5,1
10/4/2002 22:00,27.2,1,60.7,1,26.5,1,22.6,1
10/4/2002 22:15,27.2,1,60.9,1,26.5,1,22.7,1
10/4/2002 22:30,27.2,1,61.1,1,26.4,1,22.7,1
10/4/2002 22:45,27.1,1,61.3,1,26.4,1,22.8,1
10/4/2002 23:00,27.1,1,61.4,1,26.4,1,22.9,1
10/4/2002 23:15,27.1,1,61.4,1,26.4,1,23,1
10/4/2002 23:30,27,1,61.4,1,26.4,1,23,1
10/4/2002 23:45,27,1,61.5,1,26.3,1,23.1,1
10/5/2002 0:00,27,1,61.5,1,26.3,1,23.2,1
10/5/2002 0:15,26.9,1,61.5,1,26.3,1,22.1,1
10/5/2002 0:30,26.9,1,61.5,1,26.2,1,22.2,1
10/5/2002 0:45,26.9,1,61.7,1,26.2,1,22.2,1
10/5/2002 1:00,27,1,61.7,1,26.2,1,22.3,1
10/5/2002 1:15,27,1,61.5,1,26.1,1,22.4,1
10/5/2002 1:30,27,1,61.4,1,26.1,1,21.5,1
10/5/2002 1:45,26.9,1,61.8,1,26,1,21.6,1
10/5/2002 2:00,26.9,1,61.3,1,26,1,21.7,1
10/5/2002 2:15,26.9,1,61,1,25.9,1,21.8,1
10/5/2002 2:30,26.9,1,60.9,1,25.9,1,21.9,1
10/5/2002 2:45,26.9,1,60.8,1,25.8,1,22,1
10/5/2002 3:00,26.8,1,60.6,1,25.8,1,22.1,1
10/5/2002 3:15,26.7,1,60.7,1,25.7,1,22.1,1
10/5/2002 3:30,26.6,1,60.9,1,25.7,1,22.2,1
10/5/2002 3:45,26.7,1,61.1,1,25.6,1,22.3,1
10/5/2002 4:00,26.6,1,61.1,1,25.6,1,22.4,1
10/5/2002 4:15,26.6,1,60.9,1,25.5,1,22.4,1
10/5/2002 4:30,26.6,1,61,1,25.5,1,22.5,1
10/5/2002 4:45,26.5,1,60.8,1,25.4,1,22.6,1
10/5/2002 5:00,26.5,1,60.8,1,25.4,1,22.7,1
10/5/2002 5:15,26.4,1,60.9,1,25.3,1,22.7,1
10/5/2002 5:30,26.4,1,60.7,1,25.2,1,22.8,1
10/5/2002 5:45,26.3,1,60.4,1,25.2,1,22.9,1
10/5/2002 6:00,26.2,1,60.5,1,25.2,1,22.9,1
10/5/2002 6:15,26.1,1,60.6,1,25.2,1,23,1
10/5/2002 6:30,26.1,1,60.8,1,25.1,1,23,1
10/5/2002 6:45,26,1,61.8,1,25.1,1,21.4,1
10/5/2002 7:00,26,1,61.9,1,25.1,1,21.5,1
10/5/2002 7:15,26,1,62.1,1,25,1,21.6,1
10/5/2002 7:30,26,1,62.1,1,25,1,21.7,1
10/5/2002 7:45,26,1,62.1,1,25.1,1,21.7,1
10/5/2002 8:00,26,1,62.1,1,25.1,1,21.8,1
10/5/2002 8:15,25.9,1,62.1,1,25.2,1,21.9,1
10/5/2002 8:30,25.9,1,62,1,25.3,1,22,1
10/5/2002 8:45,25.8,1,61.8,1,25.4,1,22,1
10/5/2002 9:00,25.8,1,62,1,25.5,1,22.1,1
10/5/2002 9:15,25.8,1,62,1,25.5,1,22.2,1
10/5/2002 9:30,25.8,1,61.9,1,25.6,1,22.3,1
10/5/2002 9:45,25.8,1,62,1,25.7,1,22.3,1
10/5/2002 10:00,25.9,1,62.1,1,25.8,1,22.4,1
10/5/2002 10:15,25.9,1,62,1,25.8,1,22.5,1
10/5/2002 10:30,25.9,1,62,1,25.9,1,22.5,1
10/5/2002 10:45,25.9,1,62.2,1,25.9,1,22.6,1
10/5/2002 11:00,26,1,62.1,1,26,1,22.7,1
10/5/2002 11:15,26,1,62.2,1,26.1,1,22.7,1
10/5/2002 11:30,26,1,62.3,1,26.1,1,22.8,1
10/5/2002 11:45,26,1,62.1,1,26.2,1,22.9,1
10/5/2002 12:00,26.1,1,62.1,1,26.2,1,22.9,1
10/5/2002 12:15,26.1,1,62.1,1,26.3,1,23,1
10/5/2002 12:30,26.2,1,62.1,1,26.4,1,23,1
10/5/2002 12:45,26.2,1,62.1,1,26.4,1,23.1,1
10/5/2002 13:00,26.3,1,62.3,1,26.5,1,23.1,1
10/5/2002 13:15,26.3,1,62.4,1,26.6,1,23.2,1
10/5/2002 13:30,26.4,1,62.4,1,26.7,1,23.3,1
10/5/2002 13:45,26.4,1,62.4,1,26.8,1,23.3,1
10/5/2002 14:00,26.5,1,62.5,1,26.8,1,23.4,1
10/5/2002 14:15,26.5,1,62.4,1,26.9,1,23.4,1
10/5/2002 14:30,26.6,1,62.4,1,27,1,23.5,1
10/5/2002 14:45,26.6,1,62.4,1,27.1,1,23.5,1
10/5/2002 15:00,26.7,1,62.3,1,27.1,1,23.6,1
10/5/2002 15:15,26.7,1,62.3,1,27.2,1,23.6,1
10/5/2002 15:30,26.7,1,62.3,1,27.2,1,23.7,1
10/5/2002 15:45,26.8,1,62.2,1,27.3,1,23.7,1
10/5/2002 16:00,26.8,1,62.1,1,27.3,1,23.8,1
10/5/2002 16:15,26.9,1,62,1,27.4,1,23.8,1
10/5/2002 16:30,26.9,1,61.9,1,27.4,1,23.9,1
10/5/2002 16:45,26.9,1,61.8,1,27.4,1,23.9,1
10/5/2002 17:00,27,1,61.8,1,27.4,1,24,1
10/5/2002 17:15,27,1,61.7,1,27.4,1,24,1
10/5/2002 17:30,27,1,61.7,1,27.4,1,24.1,1
10/5/2002 17:45,27,1,61.7,1,27.4,1,24.1,1
10/5/2002 18:00,27,1,61.6,1,27.4,1,24.1,1
10/5/2002 18:15,27,1,61.8,1,27.3,1,24.2,1
10/5/2002 18:30,27,1,61.8,1,27.3,1,22.3,1
10/5/2002 18:45,27,1,61.7,1,27.3,1,22.4,1
10/5/2002 19:00,27.4,1,63.6,1,27.2,1,22.4,1
10/5/2002 19:15,27.6,1,62.8,1,27.2,1,22.5,1
10/5/2002 19:30,27.7,1,63.5,1,27.1,1,22.6,1
10/5/2002 19:45,27.7,1,61.4,1,27.1,1,22.7,1
10/5/2002 20:00,27.6,1,61,1,27,1,22.7,1
10/5/2002 20:15,27.5,1,60.6,1,26.9,1,22.8,1
10/5/2002 20:30,27.5,1,60.5,1,26.9,1,21.5,1
10/5/2002 20:45,27.4,1,60.5,1,26.8,1,21.6,1
10/5/2002 21:00,27.4,1,61,1,26.8,1,21.7,1
10/5/2002 21:15,27.4,1,61.2,1,26.7,1,21.8,1
10/5/2002 21:30,27.3,1,61.3,1,26.6,1,21.9,1
10/5/2002 21:45,27.3,1,61.2,1,26.6,1,22,1
10/5/2002 22:00,27.2,1,61.1,1,26.5,1,22.1,1
10/5/2002 22:15,27.2,1,61.2,1,26.5,1,22.2,1
10/5/2002 22:30,27.1,1,61.1,1,26.4,1,22.2,1
10/5/2002 22:45,27.1,1,61,1,26.4,1,22.3,1
10/5/2002 23:00,27,1,61,1,26.3,1,22.4,1
10/5/2002 23:15,26.9,1,61,1,26.3,1,22.5,1
10/5/2002 23:30,26.9,1,61,1,26.2,1,22.6,1
10/5/2002 23:45,26.8,1,60.9,1,26.1,1,21.9,1
10/6/2002 0:00,26.8,1,60.8,1,26.1,1,22,1
10/6/2002 0:15,26.8,1,60.9,1,26,1,21.5,1
10/6/2002 0:30,26.7,1,61,1,25.9,1,21.6,1
10/6/2002 0:45,26.6,1,61,1,25.8,1,21.7,1
10/6/2002 1:00,26.6,1,60.9,1,25.8,1,21.8,1
10/6/2002 1:15,26.6,1,60.8,1,25.7,1,21.5,1
10/6/2002 1:30,26.6,1,60.7,1,25.6,1,21.6,1
10/6/2002 1:45,26.5,1,60.4,1,25.6,1,21.7,1
10/6/2002 2:00,26.3,1,60.3,1,25.6,1,21.8,1
10/6/2002 2:15,26.3,1,60.3,1,25.6,1,21.8,1
10/6/2002 2:30,26.2,1,60.3,1,25.6,1,21.9,1
10/6/2002 2:45,26.1,1,60.1,1,25.6,1,22,1
10/6/2002 3:00,25.9,1,60.4,1,25.6,1,22.1,1
10/6/2002 3:15,25.8,1,60.6,1,25.6,1,22.1,1
10/6/2002 3:30,25.8,1,60.9,1,25.6,1,22.2,1
10/6/2002 3:45,25.8,1,60.9,1,25.6,1,22.3,1
10/6/2002 4:00,25.7,1,60.8,1,25.6,1,22.4,1
10/6/2002 4:15,25.7,1,60.9,1,25.5,1,22.4,1
10/6/2002 4:30,25.6,1,60.9,1,25.5,1,22.5,1
10/6/2002 4:45,25.6,1,60.9,1,25.5,1,22.5,1
10/6/2002 5:00,25.5,1,61,1,25.5,1,22.6,1
10/6/2002 5:15,25.4,1,60.8,1,25.4,1,22.7,1
10/6/2002 5:30,25.2,1,60.8,1,25.4,1,22.7,1
10/6/2002 5:45,25.1,1,61.1,1,25.4,1,22.8,1
10/6/2002 6:00,25,1,61.3,1,25.3,1,22.8,1
10/6/2002 6:15,24.9,1,61.2,1,25.3,1,22.9,1
10/6/2002 6:30,24.8,1,61.4,1,25.2,1,22.9,1
10/6/2002 6:45,24.8,1,61.7,1,25.2,1,23,1
10/6/2002 7:00,24.7,1,61.8,1,25.2,1,21.9,1
10/6/2002 7:15,24.7,1,63,1,25.1,1,22,1
10/6/2002 7:30,24.6,1,63,1,25,1,22,1
10/6/2002 7:45,24.6,1,62.9,1,25,1,22.1,1
10/6/2002 8:00,24.5,1,63,1,24.9,1,22.1,1
10/6/2002 8:15,24.5,1,63.2,1,24.9,1,22.2,1
10/6/2002 8:30,24.5,1,63.3,1,24.9,1,21.8,1
10/6/2002 8:45,24.6,1,64.4,1,24.8,1,21.8,1
10/6/2002 9:00,24.7,1,63.7,1,24.8,1,21.8,1
10/6/2002 9:15,24.7,1,63.8,1,24.8,1,21.9,1
10/6/2002 9:30,24.8,1,63.8,1,24.8,1,21.9,1
10/6/2002 9:45,24.8,1,63.6,1,24.9,1,22,1
10/6/2002 10:00,24.8,1,63.8,1,24.9,1,22.1,1
10/6/2002 10:15,24.9,1,64.1,1,24.9,1,22.1,1
10/6/2002 10:30,24.9,1,63.9,1,25,1,22.2,1
10/6/2002 10:45,24.9,1,64.2,1,25,1,22.3,1
10/6/2002 11:00,25,1,64.2,1,25.1,1,22.3,1
10/6/2002 11:15,25,1,64.1,1,25.1,1,22.4,1
10/6/2002 11:30,25,1,64.2,1,25.2,1,21.6,1
10/6/2002 11:45,25.1,1,64.3,1,25.2,1,21.3,1
10/6/2002 12:00,25.2,1,64.1,1,25.3,1,21.4,1
10/6/2002 12:15,25.3,1,63.8,1,25.3,1,21.5,1
10/6/2002 12:30,25.3,1,63.9,1,25.4,1,21.5,1
10/6/2002 12:45,25.4,1,64.1,1,25.4,1,21.6,1
10/6/2002 13:00,25.5,1,64.2,1,25.4,1,21.7,1
10/6/2002 13:15,25.6,1,64.2,1,25.5,1,21.8,1
10/6/2002 13:30,25.6,1,64.2,1,25.6,1,21.8,1
10/6/2002 13:45,25.7,1,64.2,1,25.7,1,21.9,1
10/6/2002 14:00,25.8,1,64.1,1,25.7,1,22,1
10/6/2002 14:15,25.8,1,64,1,25.7,1,22.1,1
10/6/2002 14:30,25.8,1,64.1,1,25.8,1,22.2,1
10/6/2002 14:45,25.9,1,64.2,1,25.8,1,22.2,1
10/6/2002 15:00,25.9,1,64.1,1,25.8,1,22.3,1
10/6/2002 15:15,25.9,1,64.2,1,25.8,1,22.4,1
10/6/2002 15:30,26,1,64.3,1,25.8,1,22.5,1
10/6/2002 15:45,26,1,64.3,1,25.8,1,22.5,1
10/6/2002 16:00,26,1,64.3,1,25.8,1,22.6,1